THOR ABLESTAR DEB, 6747

Orbit data source: Space-Track

THOR ABLESTAR DEB, 6747 is space debris in LEO originally from a launch on Thu, 29 Jun 1961 UTC launched from the Air Force Eastern Test Range (AFETR). Debris objects in space refer to the collection of defunct objects orbiting the Earth. Examples of debris include non-operational satellites, rocket bodies, and fragments generated from explosions, collisions, or faulty payload assembly.

Loading next visibility...
Identifier
6747, 1961-015KM
Orbit
LEO
Country
Flag of USUS
Related business
Manufacturer
Unknown
Mission
Spacecraft
Bus & Motor
Unknown
Mass
Unknown
Launch date (UTC)
1961-06-29 (65 years ago)
Launch vehicle
Unknown
Launch site
Air Force Eastern Test Range (AFETR)
Object type
Payload
Rocket body
Debris
Shape & HBR
Unknown shape, 0.1 m
Radar Cross Section
Medium (>0.1 m² and <1 m²)

Expand to show TLE details & history
Last TLE update: 4 days ago

TLE from 4 days ago
0 THOR ABLESTAR DEB
1 06747U 61015KM  26232.74985552  .00000274  00000-0  24082-3 0  9999
2 06747  66.6019 346.0807 0138564 167.9972 192.4468 13.95248812300583
Epoch: 2026-08-20T17:59Z
TLE epoch observation values (Epoch: 2026-08-20T17:59:47.516Z)
Latitude
-0.00001°
Longitude
107.04822°
Altitude
1,011.053 km
Speed
7.297 km/s
True Right ascension
23h 04m 19s
True Declination
0° 00' 00"
Sunlit
Object was in full shadow at epoch
Visualization orbit readout
Latitude
Unknown
Longitude
Unknown
Altitude
Unknown
Speed
Unknown
Apparent Right ascension
Unknown
Apparent Declination
Unknown
Sunlit
N/A
Visualization observer readout
Local Sidereal Time
12:09:42
Azimuth
Unknown
Elevation
Unknown
Doppler factor
Unknown
Orbital elements
Apogee altitude
1,009.676 km
Perigee altitude
807.737 km
Semi-major axis
7,286.844 km
Eccentricity
0.01386
Inclination
66.6019°
RAAN
346.0807°
Arg. of periapsis
167.9972°
True anomaly
192.11027°
Mean anomaly
192.4468°
Eccentric anomaly
192.27797°
Mean motion
3.48927 °/min
Orbital period
103.17 mins
BSTAR
0.00024082
Loading maneuver chart data...
Computing Atmospheric mass density...

Documentation

Showing up to 5 results
|